ONEWEB-0301 (49090 NORAD) Tracking and Keplerian Element Data

This shows tracking and keplerian element data for the satellite.

Feedback or suggestion? Click here.




ElementValue
Catalog49090
NameONEWEB-0301
Epoch Orbit1141
Epoch Day300.91667824
Epoch Year2021
RAAN342.6023
Inclination87.198
Eccentricity0.0022121
Argument of Perigee63.9168
Mean Anonmoly129.302
Mean Motion14.84510581
Decay Rate0.00031609
L11 49090U 21075R 21300.91667824 .00031609 00000-0 37200-2 0 9999
L22 49090 87.1980 342.6023 0022121 63.9168 129.3020 14.84510581 11419

Live tracking and technical data element details for ONEWEB-0301 (NORAD 49090). ONEWEB-0301 can be tracked NOW for your location showing map with azimuth and elevation plus other details from your city location.

Track the satellite on the map from your city or location and see movement details for azimuth, elevation, latitude, longitude, range, height, and movement on the map or in text.







IsCatalogInMostPopularTable: catalog: 49090, numindb: 12
Update: records affected: 1



GetName: 49090 ONEWEB-0301

Hit Count: updated at: Thu, 28 Oct 2021 11:10:28 GMT